Main page
METAR-TAF:

METAR-TAF

Airports :

Sialkot International Airport

Sialkot, Pakistan

latitude: 32-32N, longitude: 74-22E, elevation: 255 m

Current weather observation

The report was made 22 minutes ago, at 10:00 UTC
Wind 4 kt from the Southeast
Temperature 26°C
Humidity 37%
Pressure 1016 hPa
Visibility: 4000 m
haze

METAR: OPST 191000Z 13004KT 4000 HZ NSC 26/10 Q1016 NOSIG RH36

Time: 15:22 (10:22 UTC)


TAF: missing

Weather observations and forecasts of more than 4000 airports (METAR and TAF reports).

The available stations are represented by yellow and red dots on the map.

Hover mouse over dot to see the name of the station.

Then click to see weather observations and forecasts.

To change the map : click on the green buttons with a black cross to zoom in, on the green button with a dash to zoom out, or on the green arrows for adjacent maps.


METAR-TAF: